Regional Weather Roundup
Issued by NWS

Home | Current Version | Previous Version | Graphics & Text | Print | Product List | Glossary On
Versions: 1 2 3 4 5 6 7 8 9 10 11 12 13 14 15 16 17 18 19 20 21 22 23 24 25 26 27 28 29 30 31 32 33 34 35 36 37 38 39 40 41 42 43 44 45 46 47 48 49 50
000
ASUS43 KBIS 302210
RWRND

NORTH DAKOTA REGIONAL WEATHER ROUNDUP
NATIONAL WEATHER SERVICE BISMARCK ND
500 PM CDT SAT AUG 30 2014

NOTE: "FAIR" INDICATES FEW OR NO CLOUDS BELOW 12,000 FEET WITH NO
SIGNIFICANT WEATHER AND/OR OBSTRUCTIONS TO VISIBILITY.


NDZ001>003-009>011-017-302300-
NORTHWEST NORTH DAKOTA

CITY           SKY/WX    TMP DP  RH WIND       PRES   REMARKS
WILLISTON      LGT RAIN  71  60  68 S5        29.71S
MINOT          MOSUNNY   74  51  44 SE14      29.74F
MINOT AFB      MOSUNNY   72  52  50 SE13G21   29.74F
$$

NDZ018>021-031>035-040>046-302300-
SOUTHWEST NORTH DAKOTA

CITY           SKY/WX    TMP DP  RH WIND       PRES   REMARKS
BISMARCK       SUNNY     76  55  48 SE14G22   29.77F
DICKINSON      PTSUNNY   74  58  57 SE17G26   29.71F
GARRISON         N/A     74  56  53 S12       29.75F
HETTINGER ARPT MOSUNNY   77  58  51 SE15G21   29.75S
$$

NDZ004>008-012>016-024-026-027-054-302300-
NORTHEAST NORTH DAKOTA

CITY           SKY/WX    TMP DP  RH WIND       PRES   REMARKS
GRAND FORKS    MOSUNNY   73  51  46 E8        29.83F
GRND FRKS AFB  SUNNY     72  50  46 SE6       29.84F
DEVILS LAKE    SUNNY     72  50  46 S13       29.81F
$$

NDZ022-023-025-028>030-036>039-047>053-302300-
SOUTHEAST NORTH DAKOTA

CITY           SKY/WX    TMP DP  RH WIND       PRES   REMARKS
FARGO          PTSUNNY   71  59  65 SE9       29.84F
JAMESTOWN      CLOUDY    72  56  57 SE9       29.82F
$$




USA.gov is the U.S. government's official web portal to all federal, state and local government web resources and services.